TimeCDT,TemperatureF,Dew PointF,Humidity,Sea Level PressureIn,VisibilityMPH,Wind Direction,Wind SpeedMPH,Gust SpeedMPH,PrecipitationIn,Events,Conditions,WindDirDegrees,DateUTC
12:54 AM,50.0,48.0,93,30.21,9.0,Calm,Calm,-,N/A,,Clear,0,2011-10-25 05:54:00
12:58 AM,48.2,46.4,93,30.21,0.8,Calm,Calm,-,N/A,,Clear,0,2011-10-25 05:58:00
1:08 AM,46.4,46.4,100,30.21,2.0,Calm,Calm,-,N/A,,Clear,0,2011-10-25 06:08:00
1:15 AM,48.2,46.4,93,30.21,10.0,Calm,Calm,-,N/A,,Clear,0,2011-10-25 06:15:00
1:54 AM,46.9,46.0,97,30.20,6.0,Calm,Calm,-,N/A,,Clear,0,2011-10-25 06:54:00
2:01 AM,46.4,44.6,93,30.21,0.5,Calm,Calm,-,N/A,Fog,Fog,0,2011-10-25 07:01:00
2:19 AM,48.2,46.4,93,30.21,4.0,Calm,Calm,-,N/A,,Clear,0,2011-10-25 07:19:00
2:21 AM,48.2,46.4,93,30.21,4.0,Calm,Calm,-,N/A,,Partly Cloudy,0,2011-10-25 07:21:00
2:54 AM,46.0,45.0,96,30.20,4.0,Calm,Calm,-,N/A,,Partly Cloudy,0,2011-10-25 07:54:00
3:54 AM,46.9,45.0,93,30.20,4.0,Calm,Calm,-,N/A,,Partly Cloudy,0,2011-10-25 08:54:00
4:54 AM,45.0,43.0,93,30.19,4.0,Calm,Calm,-,N/A,,Partly Cloudy,0,2011-10-25 09:54:00
4:57 AM,44.6,42.8,93,30.20,0.8,Calm,Calm,-,N/A,,Clear,0,2011-10-25 09:57:00
5:05 AM,44.6,42.8,93,30.20,2.0,Calm,Calm,-,N/A,,Clear,0,2011-10-25 10:05:00
5:18 AM,44.6,42.8,93,30.20,4.0,Calm,Calm,-,N/A,,Clear,0,2011-10-25 10:18:00
5:36 AM,44.6,42.8,93,30.21,4.0,Calm,Calm,-,N/A,,Partly Cloudy,0,2011-10-25 10:36:00
5:54 AM,44.1,43.0,96,30.21,6.0,Calm,Calm,-,N/A,,Partly Cloudy,0,2011-10-25 10:54:00
6:54 AM,44.1,43.0,96,30.22,6.0,Calm,Calm,-,N/A,,Clear,0,2011-10-25 11:54:00
7:54 AM,46.0,45.0,96,30.23,10.0,Calm,Calm,-,N/A,,Clear,0,2011-10-25 12:54:00
8:54 AM,55.9,51.1,84,30.23,10.0,Calm,Calm,-,N/A,,Clear,0,2011-10-25 13:54:00
9:54 AM,66.9,53.1,61,30.24,10.0,SE,10.4,-,N/A,,Clear,140,2011-10-25 14:54:00
10:54 AM,72.0,52.0,49,30.23,10.0,SSE,6.9,-,N/A,,Clear,160,2011-10-25 15:54:00
11:54 AM,73.9,52.0,46,30.20,10.0,SSE,9.2,-,N/A,,Clear,150,2011-10-25 16:54:00
12:54 PM,78.1,51.1,39,30.17,10.0,South,4.6,-,N/A,,Clear,170,2011-10-25 17:54:00
1:54 PM,78.8,46.4,32,30.15,10.0,ESE,8.1,-,N/A,,Clear,120,2011-10-25 18:54:00
2:54 PM,80.1,43.0,27,30.11,10.0,South,6.9,-,N/A,,Clear,170,2011-10-25 19:54:00
3:54 PM,80.1,44.1,28,30.09,10.0,Variable,3.5,-,N/A,,Clear,0,2011-10-25 20:54:00
4:54 PM,79.0,44.1,29,30.07,10.0,SSE,9.2,-,N/A,,Clear,150,2011-10-25 21:54:00
5:54 PM,75.0,46.0,36,30.08,10.0,Calm,Calm,-,N/A,,Clear,0,2011-10-25 22:54:00
6:54 PM,64.0,48.9,58,30.08,10.0,SSE,4.6,-,N/A,,Clear,150,2011-10-25 23:54:00
7:54 PM,62.6,48.2,59,30.09,10.0,SSE,5.8,-,N/A,,Clear,160,2011-10-26 00:54:00
8:54 PM,62.1,48.9,62,30.09,10.0,South,5.8,-,N/A,,Clear,170,2011-10-26 01:54:00
9:54 PM,62.1,48.9,62,30.09,10.0,SSE,3.5,-,N/A,,Clear,160,2011-10-26 02:54:00
10:54 PM,59.0,50.0,72,30.10,10.0,SSE,8.1,-,N/A,,Clear,150,2011-10-26 03:54:00
11:54 PM,63.0,52.0,67,30.09,10.0,South,5.8,-,N/A,,Clear,170,2011-10-26 04:54:00